Location: Haieshausen
(51.8387°N, 9.9720°E)
Time: 04:19:04
(UTC+00:00)

Cosmos 2278 - Pass Details

Date: 14 July 2020
Orbit: 838 x 854 km, 71.1° (Epoch: 10 August)

Event Time Altitude Azimuth Distance (km) Brightness Sun altitude
Rises 01:58:47 0° 327° (NNW) 3,435 7.2 -9.3°
Reaches altitude 10° 02:01:16 10° 324° (NW) 2,496 6.4 -9.1°
Maximum altitude 02:06:52 57° 247° (WSW) 1,001 3.8 -8.6°
Drops below altitude 10° 02:12:26 10° 170° (S) 2,479 5.8 -8.0°
Sets 02:14:54 0° 166° (SSE) 3,409 6.5 -7.8°
